�N����,����,�~����,�C��,���x,�C��,����,���ϕ���,�ő�u�ԕ���,�ő厞����,���˗�,�I�_���x,�n�����x,�ő啗���N��,DTYPE
"18/08/06","00:10",0.0,27.5,76.1,998.4,332.6,1.0,1.4,341.7,0.00,23.0,28.9,"00:02:08",1
"18/08/06","00:20",0.0,27.2,77.3,998.6,293.1,0.6,1.3,334.6,0.00,22.9,29.0,"00:10:32",1
"18/08/06","00:30",0.0,27.0,77.5,998.4,316.5,0.6,1.0,318.1,0.00,22.8,28.8,"00:25:20",1
"18/08/06","00:40",0.0,26.8,79.1,998.2,321.6,0.8,1.2,331.1,0.00,22.9,28.6,"00:36:08",1
"18/08/06","00:50",0.0,26.9,78.9,998.6,334.3,1.0,1.7,340.2,0.00,23.0,28.7,"00:45:28",1
"18/08/06","01:00",0.0,26.6,80.0,998.4,297.9,0.8,1.4,305.6,0.00,22.9,28.7,"00:51:04",1
"18/08/06","01:10",0.0,26.6,80.0,998.2,319.6,0.8,1.7,343.4,0.00,22.9,28.5,"01:06:40",1
"18/08/06","01:20",0.0,26.5,81.1,997.9,328.8,1.1,1.4,333.9,0.00,23.0,28.6,"01:17:36",1
"18/08/06","01:30",0.0,26.1,82.3,998.6,300.6,0.8,1.3,326.8,0.00,22.9,28.5,"01:26:24",1
"18/08/06","01:40",0.0,26.2,82.5,998.2,330.4,1.2,1.9,341.2,0.00,23.0,28.4,"01:35:28",1
"18/08/06","01:50",0.0,26.4,82.1,998.2,332.4,1.2,2.0,324.0,0.00,23.1,28.3,"01:47:04",1
"18/08/06","02:00",0.0,26.7,81.0,997.7,285.8,0.8,1.6,308.9,0.00,23.2,28.2,"01:58:08",1
"18/08/06","02:10",0.0,26.8,79.8,997.9,322.2,1.2,2.2,338.2,0.00,23.1,28.2,"02:08:16",1
"18/08/06","02:20",0.0,26.7,80.3,997.9,346.1,1.0,1.8,346.5,0.00,23.1,28.1,"02:11:20",1
"18/08/06","02:30",0.0,26.6,81.3,997.7,342.4,1.0,1.8,349.9,0.00,23.2,28.0,"02:21:52",1
"18/08/06","02:40",0.0,26.5,81.8,997.9,331.8,1.2,2.6,323.4,0.00,23.2,28.0,"02:30:02",1
"18/08/06","02:50",0.0,26.8,80.9,998.2,327.8,1.2,2.4,321.9,0.00,23.3,28.2,"02:40:08",1
"18/08/06","03:00",0.0,26.9,80.1,998.2,343.9,1.0,1.9,339.2,0.00,23.2,27.8,"02:50:48",1
"18/08/06","03:10",0.0,26.9,80.0,997.9,349.0,0.8,1.6,347.2,0.00,23.2,28.0,"03:00:08",1
"18/08/06","03:20",0.0,27.0,79.7,998.2,350.6,0.8,1.7,1.1,0.00,23.2,27.8,"03:17:28",1
"18/08/06","03:30",0.0,27.0,79.7,998.2,337.3,1.2,2.1,334.2,0.00,23.2,27.9,"03:29:52",1
"18/08/06","03:40",0.0,27.0,79.8,998.2,334.7,1.3,2.0,342.4,0.00,23.3,27.8,"03:30:24",1
"18/08/06","03:50",0.0,27.1,79.5,997.9,336.2,1.3,2.2,347.4,0.00,23.3,27.7,"03:40:56",1
"18/08/06","04:00",0.0,27.0,79.8,997.9,326.6,0.7,1.2,346.7,0.00,23.3,27.8,"03:50:32",1
"18/08/06","04:10",0.0,26.8,80.3,998.2,292.3,0.6,1.3,324.4,0.00,23.2,27.7,"04:07:12",1
"18/08/06","04:20",0.0,26.8,80.4,998.4,329.7,1.1,1.9,339.8,0.00,23.2,27.7,"04:10:02",1
"18/08/06","04:30",0.0,26.7,80.3,998.4,336.4,1.1,1.9,329.0,0.00,23.1,27.7,"04:20:08",1
"18/08/06","04:40",0.0,26.6,80.5,998.4,325.6,0.6,1.2,348.6,0.00,23.0,27.6,"04:35:36",1
"18/08/06","04:50",0.0,26.2,81.3,998.4,238.9,0.2,0.6,153.5,0.00,22.8,27.7,"04:46:48",1
"18/08/06","05:00",0.0,25.9,82.8,998.6,279.0,0.8,1.7,328.6,0.00,22.8,27.6,"04:59:52",1
"18/08/06","05:10",0.0,25.9,83.0,998.9,298.4,0.8,1.6,327.1,0.00,22.8,27.5,"05:00:08",1
"18/08/06","05:20",0.0,25.9,83.4,998.4,322.9,1.0,1.4,337.9,0.00,22.9,27.5,"05:19:44",1
"18/08/06","05:30",0.0,26.0,82.9,998.9,326.7,1.2,1.9,345.8,0.00,22.9,27.3,"05:22:32",1
"18/08/06","05:40",0.0,26.0,82.7,998.6,339.8,1.1,2.2,346.3,0.00,22.9,27.4,"05:34:56",1
"18/08/06","05:50",0.0,26.0,82.7,998.9,334.5,1.2,2.0,336.5,0.00,22.9,27.5,"05:45:44",1
"18/08/06","06:00",0.0,26.1,82.7,998.6,338.2,1.2,2.0,355.5,0.00,23.0,27.5,"05:54:32",1
"18/08/06","06:10",0.0,26.2,82.9,998.9,327.0,1.0,2.2,342.8,0.00,23.1,27.6,"06:07:44",1
"18/08/06","06:20",0.0,26.5,81.8,999.1,340.1,1.1,2.7,344.1,0.01,23.2,27.2,"06:13:36",1
"18/08/06","06:30",0.0,26.8,81.3,999.1,323.8,0.8,1.4,328.1,0.02,23.4,27.2,"06:24:00",1
"18/08/06","06:40",0.0,27.1,80.7,999.1,340.6,0.6,1.2,355.5,0.03,23.5,27.4,"06:30:16",1
"18/08/06","06:50",0.0,27.7,79.2,998.9,317.5,0.6,2.0,349.0,0.05,23.8,27.6,"06:47:52",1
"18/08/06","07:00",0.0,28.4,76.6,998.9,333.8,0.8,2.1,352.6,0.06,23.9,27.3,"06:50:08",1
"18/08/06","07:10",0.0,28.6,75.0,998.6,322.5,0.7,2.2,354.2,0.08,23.8,27.5,"07:05:04",1
"18/08/06","07:20",0.0,28.6,74.2,998.9,292.9,0.6,1.9,232.7,0.08,23.6,27.5,"07:12:40",1
"18/08/06","07:30",0.0,28.9,72.8,998.4,287.7,0.6,1.7,357.1,0.07,23.6,27.6,"07:29:04",1
"18/08/06","07:40",0.0,28.9,73.1,998.4,334.5,0.7,1.7,2.6,0.08,23.6,27.8,"07:30:56",1
"18/08/06","07:50",0.0,29.2,72.3,998.4,285.8,0.3,1.2,327.4,0.08,23.7,27.8,"07:47:04",1
"18/08/06","08:00",0.0,30.2,68.2,998.9,318.1,0.6,2.8,226.7,0.18,23.7,27.9,"07:56:16",1
"18/08/06","08:10",0.0,30.7,67.3,999.1,5.8,1.2,4.4,28.2,0.22,24.0,28.2,"08:06:32",1
"18/08/06","08:20",0.0,31.2,65.6,999.6,3.2,1.5,4.0,348.5,0.24,24.0,28.3,"08:11:12",1
"18/08/06","08:30",0.0,31.5,64.4,999.3,18.2,1.7,3.4,12.6,0.27,24.0,28.3,"08:22:56",1
"18/08/06","08:40",0.0,31.4,63.1,999.3,28.3,2.0,4.2,2.1,0.28,23.6,28.5,"08:34:00",1
"18/08/06","08:50",0.0,31.8,62.2,999.3,21.2,2.0,3.7,43.3,0.31,23.7,28.7,"08:43:52",1
"18/08/06","09:00",0.0,31.8,61.3,999.3,19.9,2.1,4.7,29.6,0.33,23.5,28.9,"08:50:08",1
"18/08/06","09:10",0.0,32.7,60.1,999.6,6.3,2.0,4.8,39.4,0.36,24.0,29.1,"09:00:32",1
"18/08/06","09:20",0.0,32.9,59.8,999.6,7.7,1.5,3.3,349.3,0.38,24.1,29.2,"09:11:20",1
"18/08/06","09:30",0.0,33.4,58.8,1000.0,349.5,2.1,5.4,347.0,0.42,24.3,29.6,"09:22:00",1
"18/08/06","09:40",0.0,32.8,59.5,1000.0,264.3,1.6,3.4,355.3,0.46,23.9,29.7,"09:31:44",1
"18/08/06","09:50",0.0,33.0,58.4,1000.8,270.9,1.2,3.4,226.8,0.43,23.8,30.1,"09:44:16",1
"18/08/06","10:00",0.0,33.5,57.4,1000.8,16.0,1.6,3.5,359.3,0.38,24.0,30.2,"09:53:36",1
"18/08/06","10:10",0.0,33.9,56.9,1000.8,7.0,1.8,4.9,0.4,0.48,24.2,30.7,"10:09:20",1
"18/08/06","10:20",0.0,33.9,56.9,1001.0,349.3,2.6,5.1,337.8,0.52,24.2,30.7,"10:13:52",1
"18/08/06","10:30",0.0,32.9,58.1,1000.8,316.3,1.2,3.2,334.5,0.29,23.6,30.9,"10:22:48",1
"18/08/06","10:40",0.0,34.2,55.1,1000.8,343.3,1.5,3.4,347.8,0.47,23.9,31.2,"10:37:36",1
"18/08/06","10:50",0.0,33.2,56.9,1000.8,45.0,1.5,3.7,28.8,0.25,23.5,31.3,"10:42:48",1
"18/08/06","11:00",0.0,33.0,58.1,1000.3,4.1,1.7,5.4,346.8,0.19,23.7,31.3,"10:53:20",1
"18/08/06","11:10",0.0,33.9,57.5,1000.0,345.0,2.1,4.3,345.1,0.36,24.4,31.3,"11:03:44",1
"18/08/06","11:20",0.0,34.1,55.1,1000.0,343.6,2.2,4.5,349.0,0.44,23.8,31.6,"11:19:28",1
"18/08/06","11:30",0.0,32.9,58.2,999.6,352.8,2.3,5.5,356.5,0.22,23.6,31.7,"11:27:04",1
"18/08/06","11:40",0.0,33.0,59.2,999.6,355.2,2.2,5.4,18.7,0.21,24.0,31.6,"11:30:02",1
"18/08/06","11:50",0.0,33.4,58.7,999.6,5.4,2.0,3.9,13.1,0.32,24.2,31.6,"11:42:40",1
"18/08/06","12:00",0.0,33.4,58.1,999.3,346.5,2.2,4.4,359.7,0.28,24.1,31.8,"11:50:40",1
"18/08/06","12:10",0.0,33.2,58.6,999.3,349.2,2.6,5.9,336.7,0.26,24.0,31.7,"12:06:40",1
"18/08/06","12:20",0.0,33.2,58.1,999.1,359.7,2.3,4.7,330.6,0.22,23.9,31.8,"12:10:32",1
"18/08/06","12:30",0.0,33.4,57.4,999.1,24.1,1.6,3.2,9.1,0.24,23.9,31.7,"12:23:52",1
"18/08/06","12:40",0.0,34.2,56.4,998.6,357.3,1.7,3.3,1.4,0.33,24.3,31.8,"12:37:36",1
"18/08/06","12:50",0.0,34.4,53.8,999.1,344.1,2.0,4.3,350.1,0.48,23.7,32.0,"12:47:52",1
"18/08/06","13:00",0.0,33.8,56.4,999.3,11.2,1.7,4.0,357.1,0.24,24.0,31.8,"12:51:20",1
"18/08/06","13:10",0.0,33.8,58.3,999.3,343.0,2.1,4.2,347.2,0.23,24.5,32.0,"13:02:48",1
"18/08/06","13:20",0.0,34.2,57.0,999.3,16.4,1.3,3.5,323.9,0.26,24.5,32.1,"13:11:36",1
"18/08/06","13:30",0.0,34.7,54.2,998.9,29.4,1.0,2.7,347.5,0.30,24.1,32.2,"13:21:36",1
"18/08/06","13:40",0.0,35.2,53.6,999.8,354.8,1.5,2.9,342.8,0.53,24.4,32.4,"13:35:52",1
"18/08/06","13:50",0.0,35.7,52.6,999.6,352.9,1.5,3.4,337.5,0.48,24.5,32.5,"13:47:20",1
"18/08/06","14:00",0.0,34.3,54.8,999.8,346.9,2.7,5.0,352.0,0.41,23.9,32.5,"13:51:12",1
"18/08/06","14:10",0.0,33.4,57.3,999.1,11.4,2.1,3.9,355.3,0.18,23.8,32.4,"14:00:40",1
"18/08/06","14:20",0.0,35.0,54.8,998.9,355.5,2.2,5.8,327.2,0.36,24.6,32.5,"14:19:36",1
"18/08/06","14:30",0.0,33.0,59.3,998.6,338.7,2.5,5.1,8.0,0.21,24.0,32.4,"14:26:32",1
"18/08/06","14:40",0.0,34.8,54.5,998.9,355.6,2.3,4.7,346.5,0.42,24.3,32.4,"14:36:40",1
"18/08/06","14:50",0.0,34.6,57.7,998.6,344.7,2.1,5.4,338.8,0.30,25.1,32.6,"14:48:08",1
"18/08/06","15:00",0.0,35.1,55.6,998.6,358.5,2.2,4.1,349.5,0.44,24.9,32.5,"14:51:28",1
"18/08/06","15:10",0.0,34.6,55.0,998.6,10.2,2.6,5.1,349.5,0.38,24.3,32.5,"15:09:12",1
"18/08/06","15:20",0.0,33.9,55.7,998.4,341.6,3.0,7.0,337.1,0.30,23.8,32.5,"15:14:08",1
"18/08/06","15:30",0.0,33.8,56.0,998.4,347.1,2.7,7.7,335.6,0.31,23.8,32.6,"15:24:40",1
"18/08/06","15:40",0.0,34.1,55.2,997.9,344.2,3.0,5.6,341.2,0.34,23.9,32.6,"15:33:20",1
"18/08/06","15:50",0.0,34.3,56.2,998.2,341.2,2.3,6.4,342.2,0.32,24.4,32.6,"15:40:40",1
"18/08/06","16:00",0.0,34.7,53.3,998.2,351.1,2.5,5.8,349.3,0.29,23.8,32.6,"15:59:36",1
"18/08/06","16:10",0.0,34.0,55.3,998.2,347.1,3.1,6.5,341.1,0.26,23.8,32.4,"16:04:08",1
"18/08/06","16:20",0.0,34.5,53.9,997.7,340.2,1.7,3.7,347.5,0.25,23.8,32.3,"16:10:16",1
"18/08/06","16:30",0.0,34.2,55.6,997.9,346.0,2.5,4.9,358.0,0.24,24.1,32.5,"16:29:04",1
"18/08/06","16:40",0.0,34.0,54.9,997.9,338.2,1.8,4.3,313.5,0.20,23.7,32.3,"16:39:52",1
"18/08/06","16:50",0.0,33.6,57.9,997.7,334.2,2.3,5.7,333.4,0.15,24.2,32.3,"16:43:12",1
"18/08/06","17:00",0.0,32.8,59.0,997.7,348.1,3.7,9.6,325.5,0.17,23.8,32.2,"16:55:44",1
"18/08/06","17:10",0.0,32.7,59.3,997.4,352.2,2.6,6.7,344.0,0.15,23.8,32.2,"17:00:48",1
"18/08/06","17:20",0.0,32.0,61.0,997.4,342.5,3.5,7.7,328.2,0.13,23.6,32.2,"17:12:40",1
"18/08/06","17:30",0.0,31.2,63.2,997.2,359.5,3.0,7.0,351.0,0.05,23.4,32.0,"17:25:12",1
"18/08/06","17:40",0.0,30.9,64.5,997.2,0.6,2.6,7.3,319.7,0.05,23.5,31.8,"17:37:04",1
"18/08/06","17:50",0.0,30.7,65.7,996.7,357.8,3.0,5.7,347.4,0.05,23.6,31.7,"17:45:20",1
"18/08/06","18:00",0.0,30.4,66.6,997.0,1.5,2.1,5.6,346.3,0.02,23.5,31.3,"17:55:12",1
"18/08/06","18:10",0.0,30.4,66.2,996.7,7.4,1.8,4.0,42.5,0.01,23.4,31.5,"18:00:24",1
"18/08/06","18:20",0.0,30.3,66.9,996.5,354.3,2.0,4.3,334.0,0.01,23.5,31.4,"18:13:28",1
"18/08/06","18:30",0.0,30.1,66.7,997.0,13.2,1.8,5.5,347.6,0.00,23.3,31.0,"18:21:52",1
"18/08/06","18:40",0.0,29.9,67.3,996.7,357.4,1.3,3.3,25.2,0.00,23.2,30.9,"18:36:48",1
"18/08/06","18:50",0.0,29.6,68.2,996.3,348.0,1.7,3.3,355.5,0.00,23.2,30.9,"18:41:28",1
"18/08/06","19:00",0.0,29.3,69.0,996.5,335.0,1.6,3.9,331.6,0.00,23.1,30.9,"18:54:16",1
"18/08/06","19:10",0.0,29.1,69.5,996.5,353.6,1.0,2.8,344.6,0.00,23.0,30.6,"19:07:04",1
"18/08/06","19:20",0.0,29.1,69.8,997.0,7.2,1.5,4.0,347.2,0.00,23.1,30.9,"19:16:32",1
"18/08/06","19:30",0.0,29.0,70.0,997.0,5.6,1.0,2.7,343.1,0.00,23.0,30.5,"19:23:52",1
"18/08/06","19:40",0.0,28.8,70.7,997.2,342.3,1.1,3.6,330.9,0.00,23.0,30.3,"19:34:24",1
"18/08/06","19:50",0.0,28.8,71.3,997.4,341.9,1.0,2.6,352.2,0.00,23.1,30.1,"19:48:56",1
"18/08/06","20:00",0.0,28.7,71.0,997.4,327.2,1.6,2.8,5.6,0.00,23.0,30.1,"19:54:32",1
"18/08/06","20:10",0.0,28.5,71.4,997.9,343.3,1.5,3.1,339.8,0.00,22.9,30.1,"20:06:00",1
"18/08/06","20:20",0.0,28.4,71.5,997.9,351.8,1.7,3.6,354.1,0.00,22.8,30.0,"20:11:36",1
"18/08/06","20:30",0.0,28.2,72.0,998.2,330.3,1.8,3.2,336.7,0.00,22.7,29.8,"20:27:12",1
"18/08/06","20:40",0.0,28.2,71.9,998.4,345.5,1.6,4.2,330.8,0.00,22.7,29.9,"20:31:44",1
"18/08/06","20:50",0.0,28.2,71.9,998.2,344.3,2.0,4.7,338.8,0.00,22.7,29.6,"20:48:08",1
"18/08/06","21:00",0.0,28.1,72.1,998.4,340.3,1.7,3.3,323.1,0.00,22.6,29.5,"20:51:04",1
"18/08/06","21:10",0.0,28.1,72.3,998.4,335.1,2.2,4.4,344.0,0.00,22.7,29.5,"21:06:24",1
"18/08/06","21:20",0.0,28.0,72.6,998.6,339.3,1.7,3.3,334.6,0.00,22.7,29.3,"21:16:48",1
"18/08/06","21:30",0.0,28.0,72.6,998.4,332.3,2.1,3.7,353.7,0.00,22.7,29.5,"21:21:28",1
"18/08/06","21:40",0.0,28.0,72.5,998.6,323.1,2.0,4.5,329.2,0.00,22.6,29.3,"21:36:56",1
"18/08/06","21:50",0.0,28.0,72.5,998.6,325.0,1.8,3.2,303.0,0.00,22.6,29.2,"21:40:56",1
"18/08/06","22:00",0.0,27.9,72.8,998.6,338.0,1.3,2.6,334.5,0.00,22.6,29.1,"21:52:00",1
"18/08/06","22:10",0.0,27.8,72.6,998.9,346.9,1.7,3.1,315.2,0.00,22.5,29.2,"22:05:04",1
"18/08/06","22:20",0.0,27.6,73.1,998.4,316.1,1.3,4.0,344.0,0.00,22.4,29.2,"22:10:40",1
"18/08/06","22:30",0.0,27.5,73.7,998.4,318.3,1.5,3.1,292.0,0.00,22.4,29.0,"22:25:28",1
"18/08/06","22:40",0.0,27.5,73.7,998.6,328.3,2.0,4.2,319.4,0.00,22.4,28.9,"22:32:16",1
"18/08/06","22:50",0.0,27.4,74.2,998.4,331.7,1.8,3.5,333.1,0.00,22.4,28.5,"22:47:20",1
"18/08/06","23:00",0.0,27.3,74.1,998.9,332.7,2.3,4.4,336.0,0.00,22.3,28.6,"22:52:32",1
"18/08/06","23:10",0.0,27.2,74.4,998.4,325.3,1.8,4.0,349.5,0.00,22.3,28.6,"23:09:36",1
"18/08/06","23:20",0.0,27.2,74.0,998.6,337.3,2.5,5.2,329.3,0.00,22.2,28.5,"23:18:08",1
"18/08/06","23:30",0.0,27.1,73.7,998.9,337.7,2.6,4.5,336.2,0.00,22.0,28.6,"23:20:16",1
"18/08/06","23:40",0.0,27.1,73.9,998.6,332.1,2.5,5.7,337.3,0.00,22.1,28.2,"23:39:44",1
"18/08/06","23:50",0.0,27.0,74.2,998.6,336.1,2.3,3.4,341.7,0.00,22.1,28.5,"23:43:20",1
"18/08/06","24:00",0.0,26.9,74.3,998.6,338.9,3.0,5.5,343.4,0.00,22.0,28.2,"23:59:52",1
